Location: Gleizolles
(44.4833°N, 6.7667°E)
Time: 11:03:33
(UTC+00:00)

A-11 Canister half - Pass Details

Date: 15 June 2024
Orbit: 1515 x 1685 km, 47.2° (Epoch: 14 July)

Event Time Altitude Azimuth Distance (km) Brightness Sun altitude
Rises 02:16:36 0° 294° (WNW) 4,792 11.4 -12.6°
Reaches altitude 10° 02:20:03 10° 286° (WNW) 3,780 10.8 -12.2°
Maximum altitude 02:28:20 35° 225° (SW) 2,298 9.4 -11.3°
Drops below altitude 10° 02:36:24 10° 164° (SSE) 3,677 10.7 -10.4°
Sets 02:39:44 0° 156° (SSE) 4,647 11.3 -10.0°
